Location: Boda
(47.1872°N, 9.5454°E)
Time: 09:47:42
(UTC+00:00)

APEX - Pass Details

Date: 14 May 2021
Orbit: 329 x 1075 km, 69.9° (Epoch: 17 June)

Event Time Altitude Azimuth Distance (km) Brightness Sun altitude
Rises 01:28:18 0° 330° (NNW) 2,752 7.3 -18.0°
Reaches altitude 10° 01:30:17 10° 330° (NNW) 1,958 6.5 -17.8°
Maximum altitude 01:34:44 86° 242° (WSW) 717 3.7 -17.4°
Drops below altitude 10° 01:40:19 10° 155° (SSE) 2,444 6.3 -16.8°
Sets 01:43:02 0° 155° (SSE) 3,494 7.1 -16.6°
